Location: Sungai Kamana Besar
(2.6333°N, 113.4333°E)
Time: 05:26:28
(UTC+00:00)

Palapa B4 Rocket - Pass Details

Date: 29 May 2022
Orbit: 502 x 2693 km, 19.7° (Epoch: 26 June)

Event Time Altitude Azimuth Distance (km) Brightness Sun altitude
Exits shadow 21:15:03 18° 204° (SSW) 1,294 4.3 -14.9°
Maximum altitude 21:16:54 27° 160° (SSE) 992 4.1 -14.5°
Drops below altitude 10° 21:20:07 10° 100° (E) 1,719 6.2 -13.7°
Sets 21:22:39 0° 87° (E) 2,702 7.8 -13.2°
